DW6912 Weather Reports


time (UTC)temp
C
wind
direction
speed
KPH
gust
KPH
rain 1hr
cm
rain 24hr
cm
rain mn
cm
humidity
%
barometer
mb
20260505153357 25 189 4.8 9.7 0.00 0.00 0.00 54 1007.8
20260505153258 25 248 4.8 9.7 0.00 0.00 0.00 57 1008.0
20260505153158 25 218 1.6 11.3 0.00 0.00 0.00 57 1008.0
20260505153057 25 214 6.4 12.9 0.00 0.00 0.00 56 1008.0
20260505152959 25 290 4.8 12.9 0.00 0.00 0.00 57 1008.0
20260505152857 25 217 4.8 12.9 0.00 0.00 0.00 55 1008.0
20260505152657 25 207 4.8 12.9 0.00 0.00 0.00 58 1008.1
20260505152558 25 242 6.4 12.9 0.00 0.00 0.00 55 1008.1
20260505152357 25 272 3.2 12.9 0.00 0.00 0.00 56 1008.1
20260505152257 25 263 4.8 12.9 0.00 0.00 0.00 54 1008.1
20260505152057 25 279 6.4 11.3 0.00 0.00 0.00 56 1008.1
20260505151959 25 252 3.2 11.3 0.00 0.00 0.00 57 1008.1
20260505151757 24 200 3.2 11.3 0.00 0.00 0.00 57 1008.1
20260505151659 24 200 4.8 11.3 0.00 0.00 0.00 57 1008.1
20260505151558 24 246 3.2 11.3 0.00 0.00 0.00 57 1008.0
20260505151457 24 296 3.2 12.9 0.00 0.00 0.00 57 1008.1
20260505151356 24 291 3.2 12.9 0.00 0.00 0.00 59 1008.1
20260505151258 24 214 4.8 12.9 0.00 0.00 0.00 59 1008.1
20260505151057 24 240 1.6 8.0 0.00 0.00 0.00 62 1008.1
20260505151000 24 240 3.2 8.0 0.00 0.00 0.00 58 1008.1
20260505150759 24 194 1.6 8.0 0.00 0.00 0.00 60 1008.2
20260505150658 24 187 4.8 8.0 0.00 0.00 0.00 60 1008.2
20260505150458 24 229 3.2 8.0 0.00 0.00 0.00 60 1008.1
20260505150359 23 192 4.8 8.0 0.00 0.00 0.00 62 1008.2
20260505150258 23 198 6.4 8.0 0.00 0.00 0.00 60 1008.1
20260505140558 21 285 4.8 8.0 0.00 0.00 0.00 67 1008.9
20260505140459 21 169 3.2 8.0 0.00 0.00 0.00 67 1008.9
20260505140357 21 215 0.0 8.0 0.00 0.00 0.00 69 1009.0
20260505140258 21 215 3.2 8.0 0.00 0.00 0.00 67 1008.9
20260505140158 21 263 1.6 8.0 0.00 0.00 0.00 66 1008.9
20260505130258 18 140 1.6 6.4 0.00 0.00 0.00 76 1009.6
20260505130200 18 199 0.0 4.8 0.00 0.00 0.00 75 1009.6
20260505124859 17 161 1.6 9.7 0.00 0.00 0.00 74 1009.6
20260505124757 17 161 1.6 9.7 0.00 0.00 0.00 75 1009.6
20260505124657 17 161 3.2 9.7 0.00 0.00 0.00 76 1009.6
20260505124558 17 161 3.2 9.7 0.00 0.00 0.00 76 1009.6
20260505124458 17 161 1.6 9.7 0.00 0.00 0.00 75 1009.5
20260505124357 17 167 9.7 9.7 0.00 0.00 0.00 75 1009.5
20260505124257 17 189 4.8 6.4 0.00 0.00 0.00 75 1009.5
20260505124158 17 196 3.2 6.4 0.00 0.00 0.00 76 1009.5
20260505124058 17 161 6.4 6.4 0.00 0.00 0.00 79 1009.6
20260505123958 17 171 1.6 3.2 0.00 0.00 0.00 79 1009.5
20260505123857 17 171 0.0 3.2 0.00 0.00 0.00 79 1009.5
20260505123759 17 171 1.6 3.2 0.00 0.00 0.00 79 1009.5
20260505123657 17 171 0.0 3.2 0.00 0.00 0.00 78 1009.5
20260505123558 17 171 1.6 3.2 0.00 0.00 0.00 79 1009.5
20260505123500 17 171 1.6 4.8 0.00 0.00 0.00 79 1009.5
20260505123157 16 171 0.0 6.4 0.00 0.00 0.00 81 1009.4
20260505123058 16 171 0.0 6.4 0.00 0.00 0.00 81 1009.4
20260505122959 16 171 1.6 6.4 0.00 0.00 0.00 82 1009.5
20260505122858 16 171 1.6 6.4 0.00 0.00 0.00 81 1009.5
20260505122657 16 171 0.0 6.4 0.00 0.00 0.00 80 1009.5
20260505122557 16 171 6.4 6.4 0.00 0.00 0.00 82 1009.5
20260505122458 16 279 1.6 6.4 0.00 0.00 0.00 82 1009.5
20260505122258 16 177 0.0 6.4 0.00 0.00 0.00 82 1009.4
20260505122157 16 177 1.6 6.4 0.00 0.00 0.00 82 1009.4
20260505122058 16 177 3.2 6.4 0.00 0.00 0.00 82 1009.6
20260505121959 15 177 4.8 6.4 0.00 0.00 0.00 84 1009.6
20260505121857 15 178 1.6 6.4 0.00 0.00 0.00 83 1009.5
20260505121658 15 209 3.2 6.4 0.00 0.00 0.00 85 1009.4
20260505121601 15 209 3.2 6.4 0.00 0.00 0.00 86 1009.4
20260505121357 15 143 4.8 4.8 0.00 0.00 0.00 87 1009.5
20260505121057 14 142 1.6 4.8 0.00 0.00 0.00 87 1009.4
20260505120958 14 142 1.6 4.8 0.00 0.00 0.00 88 1009.4
20260505120857 14 141 0.0 4.8 0.00 0.00 0.00 88 1009.4
20260505120658 14 141 1.6 4.8 0.00 0.00 0.00 88 1009.4
20260505120458 13 140 0.0 3.2 0.00 0.00 0.00 90 1009.4
20260505120357 13 140 0.0 1.6 0.00 0.00 0.00 90 1009.4
20260505120259 13 140 0.0 1.6 0.00 0.00 0.00 90 1009.4
20260505120157 13 140 0.0 1.6 0.00 0.00 0.00 91 1009.4
20260505120057 13 140 0.0 1.6 0.00 0.00 0.00 90 1009.4
20260505115959 13 140 0.0 1.6 0.00 0.00 0.00 91 1009.4
20260505115758 13 140 0.0 1.6 0.00 0.00 0.00 92 1009.4
20260505115657 13 140 0.0 1.6 0.00 0.00 0.00 91 1009.4
20260505115556 13 140 1.6 1.6 0.00 0.00 0.00 91 1009.3
20260505115458 13 140 0.0 0.0 0.00 0.00 0.00 91 1009.3
20260505115359 13 140 0.0 0.0 0.00 0.00 0.00 92 1009.3
20260505115156 13 140 0.0 0.0 0.00 0.00 0.00 92 1009.3
20260505114858 13 140 0.0 0.0 0.00 0.00 0.00 93 1009.3
20260505114757 13 140 0.0 0.0 0.00 0.00 0.00 93 1009.3
20260505114656 13 140 0.0 0.0 0.00 0.00 0.00 93 1009.3
20260505114557 12 140 0.0 1.6 0.00 0.00 0.00 93 1009.3
20260505114459 12 140 0.0 1.6 0.00 0.00 0.00 93 1009.3
20260505114357 12 140 0.0 1.6 0.00 0.00 0.00 93 1009.2
20260505114256 12 140 0.0 1.6 0.00 0.00 0.00 93 1009.2
20260505114157 12 140 0.0 1.6 0.00 0.00 0.00 93 1009.2
20260505113959 12 140 0.0 1.6 0.00 0.00 0.00 93 1009.1
20260505113657 12 140 0.0 1.6 0.00 0.00 0.00 94 1009.1
20260505113557 12 140 0.0 0.0 0.00 0.00 0.00 94 1009.1
20260505113459 12 140 0.0 0.0 0.00 0.00 0.00 94 1009.1
20260505113356 12 140 0.0 0.0 0.00 0.00 0.00 94 1009.0
20260505113258 12 140 0.0 1.6 0.00 0.00 0.00 94 1009.1
20260505113156 12 140 0.0 1.6 0.00 0.00 0.00 94 1009.1
20260505113058 12 140 0.0 1.6 0.00 0.00 0.00 94 1009.0
20260505112856 12 140 0.0 1.6 0.00 0.00 0.00 94 1009.0
20260505112757 12 140 0.0 1.6 0.00 0.00 0.00 94 1009.1
20260505112656 12 140 0.0 1.6 0.00 0.00 0.00 94 1009.1
20260505112556 12 140 0.0 1.6 0.00 0.00 0.00 94 1009.0
20260505112457 12 140 0.0 1.6 0.00 0.00 0.00 94 1009.0
20260505112257 11 140 0.0 1.6 0.00 0.00 0.00 94 1009.0
20260505112156 11 140 0.0 1.6 0.00 0.00 0.00 94 1009.0
20260505112057 11 140 0.0 1.6 0.00 0.00 0.00 94 1009.0
20260505111958 11 140 0.0 1.6 0.00 0.00 0.00 94 1009.0
20260505111857 11 140 0.0 1.6 0.00 0.00 0.00 94 1009.0
20260505111658 11 140 0.0 1.6 0.00 0.00 0.00 94 1008.9
20260505111557 11 140 0.0 1.6 0.00 0.00 0.00 94 1009.0
20260505111458 11 140 0.0 1.6 0.00 0.00 0.00 94 1009.0
20260505111356 11 140 0.0 1.6 0.00 0.00 0.00 94 1009.0
20260505111256 11 140 0.0 1.6 0.00 0.00 0.00 94 1009.0
20260505111157 10 140 0.0 1.6 0.00 0.00 0.00 94 1009.0
20260505110959 10 140 0.0 1.6 0.00 0.00 0.00 94 1009.0
20260505110756 10 140 0.0 3.2 0.00 0.00 0.00 94 1008.9
20260505110700 10 140 0.0 3.2 0.00 0.00 0.00 94 1008.9
20260505110556 10 140 0.0 3.2 0.00 0.00 0.00 94 1008.9
20260505110357 10 140 0.0 4.8 0.00 0.00 0.00 94 1008.9
20260505110257 10 140 0.0 4.8 0.00 0.00 0.00 94 1008.8
20260505110157 10 140 0.0 4.8 0.00 0.00 0.00 94 1008.9
20260505101958 9 140 0.0 3.2 0.00 0.00 0.00 94 1008.7
20260505101858 9 140 0.0 3.2 0.00 0.00 0.00 94 1008.6
20260505101758 9 140 1.6 3.2 0.00 0.00 0.00 94 1008.6
20260505101658 9 140 0.0 3.2 0.00 0.00 0.00 94 1008.6
20260505101556 9 140 0.0 3.2 0.00 0.00 0.00 94 1008.6
20260505101459 9 140 3.2 3.2 0.00 0.00 0.00 94 1008.6
20260505101356 9 140 1.6 1.6 0.00 0.00 0.00 94 1008.6
20260505101258 9 140 1.6 1.6 0.00 0.00 0.00 94 1008.6
20260505101159 9 140 0.0 1.6 0.00 0.00 0.00 94 1008.5
20260505101056 9 140 0.0 4.8 0.00 0.00 0.00 94 1008.5
20260505100958 9 140 0.0 4.8 0.00 0.00 0.00 94 1008.5
20260505100857 9 140 0.0 4.8 0.00 0.00 0.00 94 1008.5
20260505100757 9 140 0.0 4.8 0.00 0.00 0.00 94 1008.5
20260505100557 9 140 0.0 4.8 0.00 0.00 0.00 94 1008.4
20260505100458 9 140 0.0 4.8 0.00 0.00 0.00 94 1008.5
20260505100358 9 140 0.0 4.8 0.00 0.00 0.00 94 1008.5
20260505095958 9 140 0.0 0.0 0.00 0.00 0.00 94 1008.5
20260505095858 9 140 0.0 0.0 0.00 0.00 0.00 94 1008.5
20260505095757 9 140 0.0 0.0 0.00 0.00 0.00 94 1008.4
20260505095559 9 140 0.0 0.0 0.00 0.00 0.00 94 1008.4
20260505095458 9 140 0.0 0.0 0.00 0.00 0.00 94 1008.3
20260505095401 9 140 0.0 0.0 0.00 0.00 0.00 94 1008.4
20260505095259 9 140 0.0 3.2 0.00 0.00 0.00 94 1008.3
20260505095159 9 140 0.0 3.2 0.00 0.00 0.00 94 1008.3
20260505095058 9 140 0.0 3.2 0.00 0.00 0.00 94 1008.3
20260505095000 9 140 0.0 3.2 0.00 0.00 0.00 94 1008.3
20260505094858 9 140 0.0 3.2 0.00 0.00 0.00 94 1008.2
20260505094758 9 140 0.0 3.2 0.00 0.00 0.00 94 1008.2
20260505094659 9 140 0.0 3.2 0.00 0.00 0.00 94 1008.2
20260505094558 9 140 0.0 3.2 0.00 0.00 0.00 94 1008.1
20260505094501 9 140 0.0 3.2 0.00 0.00 0.00 94 1008.1
20260505094258 9 140 1.6 3.2 0.00 0.00 0.00 94 1008.1
20260505094158 9 140 0.0 3.2 0.00 0.00 0.00 94 1008.0
20260505094058 9 140 0.0 3.2 0.00 0.00 0.00 94 1008.0
20260505094001 9 140 0.0 3.2 0.00 0.00 0.00 94 1008.1
20260505093659 9 140 0.0 3.2 0.00 0.00 0.00 94 1008.1
20260505093558 9 140 1.6 3.2 0.00 0.00 0.00 94 1008.1
20260505093500 9 140 1.6 3.2 0.00 0.00 0.00 94 1008.1
20260505093257 9 140 1.6 3.2 0.00 0.00 0.00 94 1008.1
20260505092958 10 140 0.0 3.2 0.00 0.00 0.00 94 1008.1
20260505092857 10 140 1.6 3.2 0.00 0.00 0.00 94 1008.1
20260505092758 10 140 1.6 3.2 0.00 0.00 0.00 94 1008.1
20260505092658 10 140 0.0 0.0 0.00 0.00 0.00 94 1008.0
20260505092358 10 140 0.0 3.2 0.00 0.00 0.00 93 1008.1
20260505092257 10 140 0.0 3.2 0.00 0.00 0.00 94 1008.0
20260505092158 10 140 0.0 3.2 0.00 0.00 0.00 94 1008.1
20260505092000 10 140 0.0 3.2 0.00 0.00 0.00 94 1008.1
20260505091858 10 140 0.0 3.2 0.00 0.00 0.00 94 1008.0
20260505091757 10 140 0.0 3.2 0.00 0.00 0.00 93 1008.0
20260505091657 10 140 0.0 3.2 0.00 0.00 0.00 93 1008.0
20260505091559 10 140 3.2 3.2 0.00 0.00 0.00 93 1008.0
20260505091459 10 140 0.0 3.2 0.00 0.00 0.00 93 1008.0
20260505091357 10 140 0.0 3.2 0.00 0.00 0.00 93 1008.0
20260505091257 10 140 1.6 3.2 0.00 0.00 0.00 93 1008.0
20260505091158 10 140 0.0 3.2 0.00 0.00 0.00 93 1008.0
20260505091058 10 140 1.6 3.2 0.00 0.00 0.00 93 1008.0
20260505090959 10 140 0.0 3.2 0.00 0.00 0.00 93 1008.0
20260505090758 10 140 1.6 3.2 0.00 0.00 0.00 93 1008.0
20260505090657 10 140 1.6 3.2 0.00 0.00 0.00 93 1008.0
20260505090559 10 140 0.0 3.2 0.00 0.00 0.00 93 1008.1
20260505090501 10 140 0.0 3.2 0.00 0.00 0.00 93 1008.1
20260505090357 10 140 1.6 3.2 0.00 0.00 0.00 93 1008.0
20260505090258 10 140 1.6 3.2 0.00 0.00 0.00 93 1008.1
20260505090057 10 140 0.0 3.2 0.00 0.00 0.00 93 1008.1
20260505085757 10 140 0.0 3.2 0.00 0.00 0.00 93 1008.1
20260505085656 10 140 0.0 3.2 0.00 0.00 0.00 93 1008.0
20260505085557 10 140 0.0 3.2 0.00 0.00 0.00 93 1008.1
20260505085357 10 140 0.0 3.2 0.00 0.00 0.00 93 1008.1
20260505085257 10 140 0.0 3.2 0.00 0.00 0.00 93 1008.1
20260505085157 10 140 0.0 3.2 0.00 0.00 0.00 93 1008.0
20260505085056 10 140 1.6 3.2 0.00 0.00 0.00 93 1008.1
20260505084858 10 140 1.6 3.2 0.00 0.00 0.00 93 1008.1
20260505084757 10 140 0.0 3.2 0.00 0.00 0.00 93 1008.1
20260505084556 10 140 0.0 3.2 0.00 0.00 0.00 93 1008.1
20260505084459 10 140 0.0 3.2 0.00 0.00 0.00 93 1008.1
20260505084357 10 140 0.0 3.2 0.00 0.00 0.00 93 1008.1
20260505084258 10 140 1.6 3.2 0.00 0.00 0.00 93 1008.1
20260505084157 10 140 0.0 3.2 0.00 0.00 0.00 93 1008.1
20260505084056 10 140 1.6 3.2 0.00 0.00 0.00 93 1008.0
20260505083958 10 140 0.0 3.2 0.00 0.00 0.00 92 1008.0
20260505083858 10 140 0.0 3.2 0.00 0.00 0.00 92 1008.0
20260505083558 10 140 0.0 3.2 0.00 0.00 0.00 93 1008.1
20260505083458 10 140 0.0 3.2 0.00 0.00 0.00 93 1008.0
20260505083358 10 140 1.6 3.2 0.00 0.00 0.00 93 1008.1
20260505083257 10 140 0.0 3.2 0.00 0.00 0.00 93 1008.1
20260505083157 10 140 0.0 3.2 0.00 0.00 0.00 93 1008.1
20260505083057 10 140 0.0 3.2 0.00 0.00 0.00 93 1008.0
20260505082959 10 140 0.0 3.2 0.00 0.00 0.00 92 1008.1
20260505082857 10 140 1.6 3.2 0.00 0.00 0.00 92 1008.0
20260505082757 10 140 1.6 3.2 0.00 0.00 0.00 92 1008.1
20260505082657 10 140 1.6 3.2 0.00 0.00 0.00 92 1008.0
20260505082459 10 140 0.0 3.2 0.00 0.00 0.00 92 1008.1
20260505082357 10 140 1.6 3.2 0.00 0.00 0.00 92 1008.1
20260505082257 10 140 0.0 3.2 0.00 0.00 0.00 92 1008.1
20260505082157 10 140 0.0 3.2 0.00 0.00 0.00 92 1008.1
20260505082056 10 140 0.0 3.2 0.00 0.00 0.00 92 1008.0
20260505081858 10 140 1.6 3.2 0.00 0.00 0.00 92 1008.1
20260505081758 10 140 1.6 3.2 0.00 0.00 0.00 92 1008.1
20260505081656 10 140 0.0 3.2 0.00 0.00 0.00 92 1008.0
20260505081557 10 140 0.0 3.2 0.00 0.00 0.00 92 1008.0
20260505081457 10 140 0.0 3.2 0.00 0.00 0.00 92 1008.0
20260505081357 10 140 1.6 3.2 0.00 0.00 0.00 92 1008.0
20260505081257 10 140 0.0 3.2 0.00 0.00 0.00 92 1008.0
20260505081158 10 140 0.0 3.2 0.00 0.00 0.00 91 1007.9
20260505080958 10 140 0.0 4.8 0.00 0.00 0.00 91 1007.9
20260505080858 10 140 0.0 4.8 0.00 0.00 0.00 91 1007.9
20260505080757 10 140 0.0 4.8 0.00 0.00 0.00 91 1007.9
20260505080657 10 140 3.2 4.8 0.00 0.00 0.00 91 1007.9
20260505080557 11 140 0.0 4.8 0.00 0.00 0.00 91 1007.9
20260505080459 11 140 0.0 4.8 0.00 0.00 0.00 91 1007.9
20260505080357 11 140 0.0 4.8 0.00 0.00 0.00 91 1007.8
20260505080157 11 140 0.0 4.8 0.00 0.00 0.00 91 1007.9
20260505080058 11 140 3.2 4.8 0.00 0.00 0.00 91 1007.8
20260505080001 11 140 0.0 3.2 0.00 0.00 0.00 91 1007.8
20260505075857 11 140 0.0 3.2 0.00 0.00 0.00 91 1007.9
20260505075656 11 140 1.6 4.8 0.00 0.00 0.00 91 1007.9
20260505075557 11 140 1.6 4.8 0.00 0.00 0.00 91 1007.8
20260505075458 11 140 0.0 4.8 0.00 0.00 0.00 91 1007.8
20260505075358 11 140 0.0 4.8 0.00 0.00 0.00 91 1007.8
20260505075258 11 140 3.2 4.8 0.00 0.00 0.00 91 1007.8
20260505075158 11 140 3.2 4.8 0.00 0.00 0.00 91 1007.8
20260505075058 11 140 1.6 4.8 0.00 0.00 0.00 91 1007.8
20260505074857 11 140 1.6 4.8 0.00 0.00 0.00 91 1007.7
20260505074757 11 140 0.0 4.8 0.00 0.00 0.00 91 1007.7
20260505074657 11 140 0.0 0.0 0.00 0.00 0.00 91 1007.8
20260505074556 11 140 0.0 0.0 0.00 0.00 0.00 91 1007.8
20260505074357 11 140 0.0 0.0 0.00 0.00 0.00 91 1007.8
20260505074257 11 140 0.0 0.0 0.00 0.00 0.00 91 1007.8
20260505074157 11 140 0.0 0.0 0.00 0.00 0.00 91 1007.8
20260505074057 11 140 0.0 0.0 0.00 0.00 0.00 91 1007.8
20260505073957 11 141 0.0 0.0 0.00 0.00 0.00 91 1007.8
20260505073857 11 141 0.0 0.0 0.00 0.00 0.00 91 1007.6
20260505073757 11 141 0.0 0.0 0.00 0.00 0.00 91 1007.6
20260505073656 11 141 0.0 0.0 0.00 0.00 0.00 91 1007.7
20260505073556 11 141 0.0 0.0 0.00 0.00 0.00 91 1007.7
20260505073357 11 141 0.0 0.0 0.00 0.00 0.00 91 1007.6
20260505073257 11 141 0.0 0.0 0.00 0.00 0.00 91 1007.6
20260505073158 11 141 0.0 0.0 0.00 0.00 0.00 90 1007.6
20260505073059 11 141 0.0 0.0 0.00 0.00 0.00 90 1007.7
20260505072959 11 141 0.0 0.0 0.00 0.00 0.00 90 1007.7
20260505072857 11 141 0.0 0.0 0.00 0.00 0.00 90 1007.5
20260505072757 11 141 0.0 0.0 0.00 0.00 0.00 90 1007.5
20260505072657 11 141 0.0 0.0 0.00 0.00 0.00 90 1007.6
20260505072556 11 141 0.0 0.0 0.00 0.00 0.00 90 1007.6
20260505072458 11 141 0.0 0.0 0.00 0.00 0.00 90 1007.6
20260505072357 11 141 0.0 0.0 0.00 0.00 0.00 90 1007.6
20260505072156 11 141 0.0 0.0 0.00 0.00 0.00 90 1007.6
20260505072057 11 141 0.0 0.0 0.00 0.00 0.00 90 1007.6
20260505072000 11 141 0.0 0.0 0.00 0.00 0.00 90 1007.6
20260505071857 11 141 0.0 0.0 0.00 0.00 0.00 90 1007.6
20260505071657 11 141 0.0 0.0 0.00 0.00 0.00 90 1007.6
20260505071559 11 141 0.0 0.0 0.00 0.00 0.00 90 1007.6
20260505071458 12 141 0.0 0.0 0.00 0.00 0.00 90 1007.5
20260505071357 12 141 0.0 0.0 0.00 0.00 0.00 90 1007.5
20260505071057 12 141 0.0 0.0 0.00 0.00 0.00 89 1007.6
20260505070856 12 141 0.0 0.0 0.00 0.00 0.00 89 1007.6
20260505070757 12 141 0.0 0.0 0.00 0.00 0.00 89 1007.6
20260505070657 12 141 0.0 0.0 0.00 0.00 0.00 89 1007.6
20260505070458 12 141 0.0 0.0 0.00 0.00 0.00 89 1007.6
20260505070357 12 141 0.0 0.0 0.00 0.00 0.00 89 1007.6
20260505070258 12 141 0.0 0.0 0.00 0.00 0.00 89 1007.6
20260505070157 12 141 0.0 0.0 0.00 0.00 0.00 89 1007.6
20260505070058 12 141 0.0 0.0 0.00 0.00 0.00 89 1007.6
20260505065957 12 141 0.0 0.0 0.00 0.00 0.00 89 1007.6
20260505065858 12 141 0.0 0.0 0.00 0.00 0.00 89 1007.6
20260505065757 12 141 0.0 0.0 0.00 0.00 0.00 88 1007.6
20260505065658 12 141 0.0 0.0 0.00 0.00 0.00 88 1007.6
20260505065558 12 141 0.0 0.0 0.00 0.00 0.00 88 1007.6
20260505065459 12 141 0.0 0.0 0.00 0.00 0.00 88 1007.6
20260505065359 12 141 0.0 0.0 0.00 0.00 0.00 88 1007.6
20260505065258 12 141 0.0 0.0 0.00 0.00 0.00 88 1007.6
20260505065158 12 141 0.0 0.0 0.00 0.00 0.00 88 1007.6
20260505064959 12 141 0.0 0.0 0.00 0.00 0.00 88 1007.6
20260505064759 12 141 0.0 0.0 0.00 0.00 0.00 88 1007.5
20260505064657 12 141 0.0 0.0 0.00 0.00 0.00 88 1007.5
20260505064559 12 141 0.0 0.0 0.00 0.00 0.00 88 1007.5
20260505064500 12 140 0.0 0.0 0.00 0.00 0.00 87 1007.5
20260505064359 12 141 0.0 0.0 0.00 0.00 0.00 87 1007.6
20260505064258 12 141 0.0 0.0 0.00 0.00 0.00 87 1007.6
20260505064158 12 141 0.0 0.0 0.00 0.00 0.00 87 1007.6
20260505064058 12 141 0.0 0.0 0.00 0.00 0.00 88 1007.6
20260505064001 12 141 0.0 0.0 0.00 0.00 0.00 87 1007.6
20260505063859 12 141 0.0 0.0 0.00 0.00 0.00 87 1007.7
20260505063759 12 141 0.0 0.0 0.00 0.00 0.00 87 1007.7
20260505063659 12 141 0.0 0.0 0.00 0.00 0.00 87 1007.6
20260505063558 12 141 0.0 0.0 0.00 0.00 0.00 87 1007.6
20260505063258 12 141 0.0 0.0 0.00 0.00 0.00 87 1007.7
20260505063158 12 141 0.0 0.0 0.00 0.00 0.00 87 1007.7
20260505063058 12 141 0.0 0.0 0.00 0.00 0.00 87 1007.7
20260505063000 12 141 0.0 0.0 0.00 0.00 0.00 87 1007.7
20260505062858 12 141 0.0 0.0 0.00 0.00 0.00 87 1007.7
20260505062759 12 141 0.0 0.0 0.00 0.00 0.00 87 1007.8
20260505062700 12 141 0.0 0.0 0.00 0.00 0.00 87 1007.9
20260505062459 12 141 0.0 0.0 0.00 0.00 0.00 87 1007.9
20260505062357 12 141 0.0 0.0 0.00 0.00 0.00 86 1007.8
20260505062158 12 141 0.0 0.0 0.00 0.00 0.00 86 1007.7
20260505062100 13 141 0.0 0.0 0.00 0.00 0.00 86 1007.8
20260505061959 13 141 0.0 0.0 0.00 0.00 0.00 86 1007.7
20260505061858 13 141 0.0 0.0 0.00 0.00 0.00 86 1007.8
20260505061759 13 141 0.0 0.0 0.00 0.00 0.00 86 1007.8
20260505061358 13 141 0.0 0.0 0.00 0.00 0.00 86 1007.8
20260505061258 13 141 0.0 0.0 0.00 0.00 0.00 86 1007.8
20260505061058 13 141 0.0 0.0 0.00 0.00 0.00 85 1007.9
20260505060959 13 141 0.0 0.0 0.00 0.00 0.00 85 1007.9
20260505060858 13 141 0.0 0.0 0.00 0.00 0.00 85 1008.0
20260505060759 13 141 0.0 0.0 0.00 0.00 0.00 85 1007.9
20260505060658 13 141 0.0 0.0 0.00 0.00 0.00 85 1007.9
20260505060559 13 141 0.0 0.0 0.00 0.00 0.00 85 1007.9
20260505060459 13 141 0.0 0.0 0.00 0.00 0.00 85 1007.9
20260505060358 13 141 0.0 0.0 0.00 0.00 0.00 85 1007.9
20260505060258 13 141 0.0 0.0 0.00 0.00 0.00 85 1007.7
20260505060157 13 141 0.0 0.0 0.00 0.00 0.00 85 1007.8
20260505060059 13 141 0.0 0.0 0.00 0.00 0.00 85 1007.8
20260505055958 13 141 0.0 0.0 0.00 0.00 0.00 85 1007.8
20260505055859 13 141 0.0 0.0 0.00 0.00 0.00 85 1007.9
20260505055756 13 141 0.0 0.0 0.00 0.00 0.00 85 1007.8
20260505055657 13 141 0.0 0.0 0.00 0.00 0.00 85 1007.7
20260505055556 13 141 0.0 0.0 0.00 0.00 0.00 85 1007.8
20260505055458 13 141 0.0 0.0 0.00 0.00 0.00 85 1007.8
20260505055356 13 141 0.0 0.0 0.00 0.00 0.00 85 1007.9
20260505055256 13 141 0.0 0.0 0.00 0.00 0.00 85 1007.9
20260505055157 13 141 0.0 0.0 0.00 0.00 0.00 85 1007.7
20260505055057 13 141 0.0 0.0 0.00 0.00 0.00 85 1007.9
20260505054959 13 141 0.0 0.0 0.00 0.00 0.00 84 1007.9
20260505054857 13 141 0.0 0.0 0.00 0.00 0.00 84 1007.7
20260505054757 13 141 0.0 0.0 0.00 0.00 0.00 85 1007.9
20260505054658 13 141 0.0 0.0 0.00 0.00 0.00 85 1007.8
20260505054356 13 141 0.0 0.0 0.00 0.00 0.00 85 1007.8
20260505054157 13 141 0.0 0.0 0.00 0.00 0.00 85 1007.8
20260505054056 13 141 0.0 0.0 0.00 0.00 0.00 84 1007.8
20260505053958 13 141 0.0 0.0 0.00 0.00 0.00 84 1007.8
20260505053856 13 141 0.0 0.0 0.00 0.00 0.00 84 1007.8
20260505053757 13 141 0.0 0.0 0.00 0.00 0.00 84 1007.8
20260505053657 13 141 0.0 0.0 0.00 0.00 0.00 84 1007.8
20260505053556 13 141 0.0 0.0 0.00 0.00 0.00 84 1007.9
20260505053458 13 141 0.0 0.0 0.00 0.00 0.00 83 1007.9
20260505053358 13 141 0.0 0.0 0.00 0.00 0.00 83 1007.9
20260505053156 13 141 0.0 0.0 0.00 0.00 0.00 83 1007.8
20260505053056 13 141 0.0 0.0 0.00 0.00 0.00 83 1007.8
20260505052958 13 141 0.0 0.0 0.00 0.00 0.00 83 1007.9
20260505052856 13 141 0.0 0.0 0.00 0.00 0.00 84 1007.9
20260505052758 13 141 0.0 0.0 0.00 0.00 0.00 84 1007.9
20260505052658 13 141 0.0 0.0 0.00 0.00 0.00 84 1007.9
20260505052557 13 141 0.0 0.0 0.00 0.00 0.00 83 1007.8
20260505052458 13 141 0.0 0.0 0.00 0.00 0.00 83 1007.8
20260505052256 13 141 0.0 0.0 0.00 0.00 0.00 83 1007.9
20260505052157 13 141 0.0 0.0 0.00 0.00 0.00 83 1007.9
20260505052057 13 141 0.0 0.0 0.00 0.00 0.00 83 1007.9
20260505051958 13 141 0.0 0.0 0.00 0.00 0.00 83 1007.8
20260505051857 13 141 0.0 0.0 0.00 0.00 0.00 83 1007.8
20260505051657 13 141 0.0 1.6 0.00 0.00 0.00 83 1007.7
20260505051558 13 141 0.0 1.6 0.00 0.00 0.00 83 1007.7
20260505051500 13 141 0.0 1.6 0.00 0.00 0.00 83 1007.7
20260505051356 13 141 0.0 1.6 0.00 0.00 0.00 83 1007.7
20260505051157 13 141 0.0 1.6 0.00 0.00 0.00 83 1007.8
20260505051055 13 141 0.0 1.6 0.00 0.00 0.00 83 1007.8
20260505051000 13 141 0.0 1.6 0.00 0.00 0.00 83 1007.8
20260505050856 13 141 0.0 1.6 0.00 0.00 0.00 83 1007.8
20260505050757 13 141 0.0 1.6 0.00 0.00 0.00 83 1007.8
20260505050657 13 141 0.0 1.6 0.00 0.00 0.00 83 1007.8
20260505050557 13 141 0.0 1.6 0.00 0.00 0.00 83 1007.8
20260505050458 13 141 0.0 1.6 0.00 0.00 0.00 83 1007.9
20260505050357 13 141 0.0 1.6 0.00 0.00 0.00 83 1007.8
20260505050257 13 141 0.0 0.0 0.00 0.00 0.00 83 1007.8
20260505050157 13 141 0.0 0.0 0.00 0.00 0.00 83 1007.8
20260505041758 13 141 0.0 3.2 0.00 0.00 0.00 81 1007.6
20260505041658 13 141 0.0 3.2 0.00 0.00 0.00 81 1007.6
20260505041556 13 141 0.0 3.2 0.00 0.00 0.00 81 1007.6
20260505041356 13 141 1.6 3.2 0.00 0.00 0.00 81 1007.6
20260505041258 13 141 0.0 1.6 0.00 0.00 0.00 81 1007.6
20260505041057 13 141 0.0 3.2 0.00 0.00 0.00 81 1007.6
20260505040959 13 141 0.0 3.2 0.00 0.00 0.00 81 1007.5
20260505040857 13 141 0.0 3.2 0.00 0.00 0.00 81 1007.5
20260505040757 13 141 0.0 3.2 0.00 0.00 0.00 81 1007.5
20260505040657 13 141 0.0 3.2 0.00 0.00 0.00 81 1007.5
20260505040458 13 141 0.0 3.2 0.00 0.00 0.00 80 1007.5
20260505040357 13 141 0.0 3.2 0.00 0.00 0.00 80 1007.5
20260505040200 13 141 0.0 3.2 0.00 0.00 0.00 80 1007.5
20260505040101 13 141 0.0 1.6 0.00 0.00 0.00 80 1007.5
20260505035859 13 141 0.0 3.2 0.00 0.00 0.00 80 1007.6
20260505035759 13 141 0.0 3.2 0.00 0.00 0.00 80 1007.6
20260505035700 13 141 0.0 3.2 0.00 0.00 0.00 80 1007.6
20260505035600 13 141 0.0 3.2 0.00 0.00 0.00 80 1007.6
20260505035503 13 141 0.0 3.2 0.00 0.00 0.00 80 1007.6
20260505035200 13 141 0.0 3.2 0.00 0.00 0.00 80 1007.6
20260505035059 13 141 0.0 3.2 0.00 0.00 0.00 80 1007.6
20260505035003 13 141 0.0 1.6 0.00 0.00 0.00 80 1007.6
20260505034901 13 141 0.0 1.6 0.00 0.00 0.00 79 1007.7
20260505034659 13 141 0.0 3.2 0.00 0.00 0.00 80 1007.6
20260505034600 13 141 0.0 3.2 0.00 0.00 0.00 80 1007.6
20260505034500 13 141 0.0 3.2 0.00 0.00 0.00 80 1007.6
20260505034359 13 141 0.0 3.2 0.00 0.00 0.00 79 1007.6
20260505034200 13 141 0.0 3.2 0.00 0.00 0.00 79 1007.6
20260505034059 13 141 1.6 3.2 0.00 0.00 0.00 79 1007.6
20260505034004 13 141 0.0 3.2 0.00 0.00 0.00 79 1007.6
20260505033900 13 141 0.0 3.2 0.00 0.00 0.00 79 1007.6
20260505033800 13 141 0.0 3.2 0.00 0.00 0.00 79 1007.6
20260505033700 13 141 1.6 3.2 0.00 0.00 0.00 79 1007.6
20260505033559 13 141 0.0 3.2 0.00 0.00 0.00 79 1007.6
20260505033501 13 141 0.0 3.2 0.00 0.00 0.00 79 1007.5
20260505033359 13 141 1.6 3.2 0.00 0.00 0.00 79 1007.5
20260505033300 13 141 1.6 1.6 0.00 0.00 0.00 79 1007.4
20260505033059 13 141 0.0 0.0 0.00 0.00 0.00 79 1007.4
20260505032900 13 141 0.0 0.0 0.00 0.00 0.00 79 1007.4
20260505032759 13 141 0.0 0.0 0.00 0.00 0.00 79 1007.5
20260505032559 13 141 0.0 1.6 0.00 0.00 0.00 78 1007.5
20260505032503 13 141 0.0 1.6 0.00 0.00 0.00 78 1007.5
20260505032400 13 141 0.0 1.6 0.00 0.00 0.00 78 1007.6
20260505032300 13 141 0.0 1.6 0.00 0.00 0.00 78 1007.6
20260505032159 13 141 0.0 1.6 0.00 0.00 0.00 78 1007.6
20260505032058 13 141 0.0 3.2 0.00 0.00 0.00 78 1007.6
20260505032004 13 141 0.0 3.2 0.00 0.00 0.00 77 1007.6
20260505031700 13 141 0.0 3.2 0.00 0.00 0.00 77 1007.6
20260505031558 13 141 0.0 3.2 0.00 0.00 0.00 77 1007.6
20260505031503 13 141 0.0 3.2 0.00 0.00 0.00 77 1007.6
20260505031300 13 141 0.0 3.2 0.00 0.00 0.00 77 1007.6
20260505031159 13 141 1.6 3.2 0.00 0.00 0.00 77 1007.6
20260505031059 13 141 0.0 3.2 0.00 0.00 0.00 77 1007.5
20260505031000 13 141 0.0 3.2 0.00 0.00 0.00 78 1007.6
20260505030759 13 141 0.0 3.2 0.00 0.00 0.00 78 1007.5
20260505030659 13 141 0.0 3.2 0.00 0.00 0.00 78 1007.5
20260505030600 13 141 1.6 3.2 0.00 0.00 0.00 78 1007.5
20260505030501 13 141 0.0 3.2 0.00 0.00 0.00 78 1007.6
20260505030359 13 141 0.0 3.2 0.00 0.00 0.00 78 1007.6
20260505030300 13 141 3.2 3.2 0.00 0.00 0.00 77 1007.6
20260505030159 13 141 0.0 3.2 0.00 0.00 0.00 77 1007.6
20260505025959 13 141 1.6 4.8 0.00 0.00 0.00 77 1007.6
20260505025859 13 141 0.0 4.8 0.00 0.00 0.00 77 1007.6
20260505025758 13 141 0.0 4.8 0.00 0.00 0.00 77 1007.7
20260505025559 13 141 1.6 6.4 0.00 0.00 0.00 77 1007.6
20260505025459 14 141 1.6 6.4 0.00 0.00 0.00 76 1007.6
20260505025258 14 141 0.0 6.4 0.00 0.00 0.00 76 1007.6
20260505025158 14 141 0.0 6.4 0.00 0.00 0.00 76 1007.6
20260505025058 14 141 3.2 6.4 0.00 0.00 0.00 76 1007.6
20260505024959 14 142 0.0 6.4 0.00 0.00 0.00 76 1007.6
20260505024858 14 142 0.0 6.4 0.00 0.00 0.00 76 1007.6
20260505024759 14 142 1.6 6.4 0.00 0.00 0.00 76 1007.6
20260505024657 14 142 3.2 6.4 0.00 0.00 0.00 75 1007.5
20260505024558 14 109 1.6 3.2 0.00 0.00 0.00 75 1007.6
20260505024500 14 109 0.0 3.2 0.00 0.00 0.00 76 1007.6
20260505024358 14 109 0.0 3.2 0.00 0.00 0.00 76 1007.5
20260505024258 14 109 0.0 3.2 0.00 0.00 0.00 76 1007.5
20260505024158 14 109 0.0 3.2 0.00 0.00 0.00 76 1007.5
20260505024058 13 109 1.6 3.2 0.00 0.00 0.00 76 1007.4
20260505023858 13 109 3.2 3.2 0.00 0.00 0.00 76 1007.4
20260505023758 13 109 0.0 3.2 0.00 0.00 0.00 76 1007.4
20260505023659 13 109 0.0 0.0 0.00 0.00 0.00 77 1007.4
20260505023558 13 109 0.0 0.0 0.00 0.00 0.00 77 1007.4
20260505023500 13 109 0.0 0.0 0.00 0.00 0.00 77 1007.3
20260505023358 13 109 0.0 0.0 0.00 0.00 0.00 77 1007.3
20260505023158 13 109 0.0 3.2 0.00 0.00 0.00 77 1007.3
20260505023059 13 109 0.0 3.2 0.00 0.00 0.00 77 1007.3
20260505022857 13 109 0.0 4.8 0.00 0.00 0.00 77 1007.4
20260505022758 13 109 0.0 4.8 0.00 0.00 0.00 77 1007.3
20260505022558 13 109 0.0 4.8 0.00 0.00 0.00 77 1007.4
20260505022500 13 109 0.0 4.8 0.00 0.00 0.00 77 1007.3
20260505022359 13 109 0.0 4.8 0.00 0.00 0.00 76 1007.3
20260505022258 13 109 3.2 4.8 0.00 0.00 0.00 77 1007.3
20260505022158 14 109 0.0 4.8 0.00 0.00 0.00 76 1007.3
20260505022058 14 109 0.0 4.8 0.00 0.00 0.00 76 1007.2
20260505022000 14 109 3.2 4.8 0.00 0.00 0.00 76 1007.3
20260505021758 14 109 0.0 4.8 0.00 0.00 0.00 76 1007.3
20260505021557 14 109 1.6 4.8 0.00 0.00 0.00 75 1007.3
20260505021459 14 109 0.0 4.8 0.00 0.00 0.00 75 1007.3
20260505021259 14 109 0.0 4.8 0.00 0.00 0.00 75 1007.3
20260505021158 14 109 0.0 3.2 0.00 0.00 0.00 75 1007.3
20260505021059 14 109 0.0 3.2 0.00 0.00 0.00 75 1007.4
20260505020857 14 109 0.0 3.2 0.00 0.00 0.00 75 1007.4
20260505020758 14 109 0.0 3.2 0.00 0.00 0.00 75 1007.4
20260505020658 14 109 0.0 3.2 0.00 0.00 0.00 75 1007.3
20260505020459 14 109 0.0 4.8 0.00 0.00 0.00 75 1007.3
20260505020358 14 109 3.2 4.8 0.00 0.00 0.00 75 1007.3
20260505020159 14 109 0.0 4.8 0.00 0.00 0.00 75 1007.3
20260505020059 14 109 0.0 4.8 0.00 0.00 0.00 75 1007.3
20260505020000 14 109 0.0 4.8 0.00 0.00 0.00 75 1007.3
20260505015859 14 109 0.0 4.8 0.00 0.00 0.00 75 1007.3
20260505015759 14 109 0.0 4.8 0.00 0.00 0.00 75 1007.3
20260505015658 14 109 1.6 4.8 0.00 0.00 0.00 75 1007.3
20260505015559 14 109 3.2 3.2 0.00 0.00 0.00 75 1007.4
20260505015500 15 109 0.0 3.2 0.00 0.00 0.00 75 1007.4
20260505015359 15 109 0.0 3.2 0.00 0.00 0.00 74 1007.4
20260505015259 15 109 0.0 3.2 0.00 0.00 0.00 74 1007.3
20260505015158 15 109 0.0 3.2 0.00 0.00 0.00 74 1007.3
20260505015100 15 109 0.0 3.2 0.00 0.00 0.00 74 1007.3
20260505015001 15 109 0.0 3.2 0.00 0.00 0.00 74 1007.3
20260505014858 15 109 0.0 3.2 0.00 0.00 0.00 73 1007.4
20260505014601 15 109 0.0 4.8 0.00 0.00 0.00 73 1007.3
20260505014501 15 109 0.0 4.8 0.00 0.00 0.00 73 1007.4
20260505014359 15 109 0.0 4.8 0.00 0.00 0.00 73 1007.4
20260505014258 15 109 0.0 4.8 0.00 0.00 0.00 73 1007.4
20260505014200 15 109 0.0 4.8 0.00 0.00 0.00 73 1007.3
20260505014058 15 109 0.0 4.8 0.00 0.00 0.00 73 1007.3
20260505014000 15 109 0.0 4.8 0.00 0.00 0.00 73 1007.3
20260505013900 15 109 1.6 4.8 0.00 0.00 0.00 72 1007.3
20260505013800 15 109 0.0 3.2 0.00 0.00 0.00 72 1007.3
20260505013659 15 109 0.0 3.2 0.00 0.00 0.00 72 1007.3
20260505013600 15 109 0.0 3.2 0.00 0.00 0.00 72 1007.3
20260505013504 15 109 1.6 3.2 0.00 0.00 0.00 72 1007.2
20260505013258 15 109 0.0 3.2 0.00 0.00 0.00 72 1007.2
20260505013058 15 109 0.0 3.2 0.00 0.00 0.00 72 1007.1
20260505013000 15 109 0.0 3.2 0.00 0.00 0.00 71 1007.2
20260505012858 15 109 1.6 3.2 0.00 0.00 0.00 71 1007.1
20260505012759 15 109 0.0 3.2 0.00 0.00 0.00 71 1007.2
20260505012700 15 109 1.6 3.2 0.00 0.00 0.00 71 1007.2
20260505012559 15 109 0.0 3.2 0.00 0.00 0.00 71 1007.2
20260505012504 15 109 0.0 3.2 0.00 0.00 0.00 71 1007.2
20260505012359 15 109 0.0 3.2 0.00 0.00 0.00 70 1007.2
20260505012259 16 109 1.6 3.2 0.00 0.00 0.00 70 1007.3
20260505012158 16 109 0.0 3.2 0.00 0.00 0.00 70 1007.3
20260505012100 16 109 0.0 3.2 0.00 0.00 0.00 70 1007.3
20260505012002 16 109 0.0 3.2 0.00 0.00 0.00 69 1007.3
20260505011859 16 109 0.0 3.2 0.00 0.00 0.00 69 1007.3
20260505011800 16 109 0.0 3.2 0.00 0.00 0.00 69 1007.3
20260505011700 16 109 0.0 3.2 0.00 0.00 0.00 69 1007.3
20260505011559 16 109 0.0 3.2 0.00 0.00 0.00 69 1007.3
20260505011503 16 109 1.6 3.2 0.00 0.00 0.00 68 1007.2
20260505011400 16 109 1.6 3.2 0.00 0.00 0.00 68 1007.3
20260505011259 16 109 1.6 3.2 0.00 0.00 0.00 68 1007.2
20260505011158 16 109 3.2 3.2 0.00 0.00 0.00 68 1007.2
20260505011100 16 109 1.6 3.2 0.00 0.00 0.00 68 1007.2
20260505011002 16 109 0.0 3.2 0.00 0.00 0.00 68 1007.2
20260505010859 16 109 1.6 3.2 0.00 0.00 0.00 68 1007.2
20260505010801 16 109 3.2 3.2 0.00 0.00 0.00 67 1007.2
20260505010659 16 109 1.6 3.2 0.00 0.00 0.00 67 1007.2
20260505010600 16 109 1.6 3.2 0.00 0.00 0.00 66 1007.1
20260505010502 16 109 0.0 3.2 0.00 0.00 0.00 66 1007.1
20260505010400 16 109 0.0 3.2 0.00 0.00 0.00 66 1007.1
20260505010301 16 109 0.0 4.8 0.00 0.00 0.00 66 1007.1
20260505010200 17 109 1.6 4.8 0.00 0.00 0.00 66 1007.1
20260505010100 17 109 0.0 4.8 0.00 0.00 0.00 66 1007.0
20260505005858 17 109 3.2 4.8 0.00 0.00 0.00 65 1007.0
20260505005758 17 109 1.6 4.8 0.00 0.00 0.00 64 1007.0
20260505005558 17 109 1.6 4.8 0.00 0.00 0.00 64 1006.9
20260505005501 17 109 1.6 4.8 0.00 0.00 0.00 64 1006.9
20260505005259 17 109 1.6 4.8 0.00 0.00 0.00 63 1006.9
20260505005159 17 109 1.6 4.8 0.00 0.00 0.00 63 1006.9
20260505005059 17 109 1.6 4.8 0.00 0.00 0.00 63 1006.9
20260505004858 17 109 0.0 3.2 0.00 0.00 0.00 63 1006.9
20260505004758 17 109 1.6 3.2 0.00 0.00 0.00 63 1006.9
20260505004658 17 109 0.0 3.2 0.00 0.00 0.00 62 1006.8
20260505004558 17 109 0.0 3.2 0.00 0.00 0.00 62 1006.8
20260505004500 18 109 0.0 3.2 0.00 0.00 0.00 62 1006.8
20260505004258 18 109 1.6 3.2 0.00 0.00 0.00 61 1006.7
20260505004159 18 109 1.6 3.2 0.00 0.00 0.00 61 1006.8
20260505003858 18 109 1.6 3.2 0.00 0.00 0.00 60 1006.7
20260505003758 18 109 1.6 3.2 0.00 0.00 0.00 60 1006.7
20260505003701 18 109 1.6 3.2 0.00 0.00 0.00 60 1006.7
20260505003500 18 109 0.0 4.8 0.00 0.00 0.00 60 1006.6
20260505003359 18 109 0.0 4.8 0.00 0.00 0.00 59 1006.7
20260505003158 19 109 1.6 4.8 0.00 0.00 0.00 59 1006.7
20260505003058 19 109 0.0 4.8 0.00 0.00 0.00 58 1006.7
20260505003000 19 109 1.6 4.8 0.00 0.00 0.00 57 1006.7
20260505002859 19 109 1.6 4.8 0.00 0.00 0.00 57 1006.7
20260505002757 19 109 0.0 4.8 0.00 0.00 0.00 57 1006.7
20260505002659 19 109 0.0 4.8 0.00 0.00 0.00 57 1006.7
20260505002557 19 180 3.2 3.2 0.00 0.00 0.00 58 1006.7
20260505002459 19 180 1.6 3.2 0.00 0.00 0.00 58 1006.7
20260505002258 20 180 1.6 3.2 0.00 0.00 0.00 55 1006.6
20260505002159 20 180 3.2 3.2 0.00 0.00 0.00 55 1006.6
20260505002059 20 180 0.0 3.2 0.00 0.00 0.00 55 1006.6
20260505001959 20 180 0.0 3.2 0.00 0.00 0.00 55 1006.6
20260505001659 20 180 0.0 6.4 0.00 0.00 0.00 55 1006.6
20260505001559 20 180 0.0 6.4 0.00 0.00 0.00 54 1006.6
20260505001500 20 180 0.0 6.4 0.00 0.00 0.00 55 1006.6
20260505001359 20 180 0.0 6.4 0.00 0.00 0.00 53 1006.6
20260505001259 20 180 0.0 8.0 0.00 0.00 0.00 54 1006.6
20260505001157 20 180 0.0 8.0 0.00 0.00 0.00 54 1006.5
20260505001058 20 180 0.0 8.0 0.00 0.00 0.00 55 1006.5
20260505001001 20 180 0.0 8.0 0.00 0.00 0.00 53 1006.6
20260505000858 20 190 1.6 8.0 0.00 0.00 0.00 54 1006.4
20260505000758 20 190 1.6 8.0 0.00 0.00 0.00 54 1006.5
20260505000658 20 164 3.2 8.0 0.00 0.00 0.00 54 1006.5
20260505000558 20 236 1.6 8.0 0.00 0.00 0.00 54 1006.4
20260505000459 20 236 0.0 8.0 0.00 0.00 0.00 53 1006.5
20260505000359 20 236 1.6 8.0 0.00 0.00 0.00 52 1006.4
20260505000258 20 236 4.8 8.0 0.00 0.00 0.00 52 1006.4
20260505000058 20 88 1.6 4.8 0.00 0.00 0.00 53 1006.5
20260505000000 21 88 3.2 4.8 0.00 0.00 0.00 53 1006.5
20260504235900 21 88 1.6 8.0 0.00 0.00 0.00 53 1006.4
20260504235659 21 88 0.0 8.0 0.00 0.00 0.00 53 1006.4
20260504235559 21 88 4.8 8.0 0.00 0.00 0.00 52 1006.4
20260504235502 21 160 3.2 8.0 0.00 0.00 0.00 52 1006.4
20260504235400 21 163 0.0 8.0 0.00 0.00 0.00 53 1006.4
20260504235301 21 163 1.6 8.0 0.00 0.00 0.00 53 1006.4
20260504235159 21 163 1.6 8.0 0.00 0.00 0.00 52 1006.4
20260504235059 21 163 6.4 8.0 0.00 0.00 0.00 52 1006.4
20260504235001 21 163 3.2 8.0 0.00 0.00 0.00 52 1006.3
20260504234859 21 94 6.4 9.7 0.00 0.00 0.00 52 1006.5
20260504234759 21 36 4.8 4.8 0.00 0.00 0.00 53 1006.4
20260504234659 21 36 1.6 6.4 0.00 0.00 0.00 53 1006.4
20260504234559 21 36 0.0 6.4 0.00 0.00 0.00 52 1006.4
20260504234359 21 169 1.6 6.4 0.00 0.00 0.00 52 1006.4
20260504234159 21 289 1.6 9.7 0.00 0.00 0.00 52 1006.4
20260504234059 21 295 3.2 9.7 0.00 0.00 0.00 51 1006.3
20260504233959 21 243 1.6 9.7 0.00 0.00 0.00 52 1006.3
20260504233900 21 245 1.6 9.7 0.00 0.00 0.00 52 1006.3
20260504233800 21 209 3.2 12.9 0.00 0.00 0.00 52 1006.3
20260504233659 21 209 3.2 12.9 0.00 0.00 0.00 52 1006.2
20260504233600 21 204 3.2 12.9 0.00 0.00 0.00 52 1006.3
20260504233500 21 204 1.6 12.9 0.00 0.00 0.00 51 1006.3
20260504233401 21 204 1.6 12.9 0.00 0.00 0.00 52 1006.3
20260504233259 21 204 3.2 12.9 0.00 0.00 0.00 51 1006.3
20260504233058 21 164 0.0 12.9 0.00 0.00 0.00 51 1006.2
20260504232900 21 161 11.3 11.3 0.00 0.00 0.00 53 1006.2
20260504232800 21 161 1.6 11.3 0.00 0.00 0.00 51 1006.2
20260504232700 21 161 6.4 11.3 0.00 0.00 0.00 51 1006.3
20260504232558 21 190 4.8 9.7 0.00 0.00 0.00 52 1006.3
20260504232500 21 231 1.6 9.7 0.00 0.00 0.00 52 1006.3
20260504232359 21 231 1.6 9.7 0.00 0.00 0.00 51 1006.2
20260504232259 21 319 4.8 9.7 0.00 0.00 0.00 51 1006.2
20260504232158 21 196 3.2 12.9 0.00 0.00 0.00 52 1006.3
20260504232005 21 88 6.4 12.9 0.00 0.00 0.00 51 1006.2
20260504231900 21 69 3.2 12.9 0.00 0.00 0.00 52 1006.3
20260504231759 21 313 0.0 12.9 0.00 0.00 0.00 51 1006.2
20260504231700 21 335 6.4 12.9 0.00 0.00 0.00 50 1006.2
20260504231559 21 202 1.6 12.9 0.00 0.00 0.00 50 1006.3
20260504231500 21 178 9.7 12.9 0.00 0.00 0.00 51 1006.3
20260504231359 21 251 3.2 12.9 0.00 0.00 0.00 50 1006.3
20260504231259 21 285 4.8 9.7 0.00 0.00 0.00 50 1006.3
20260504231200 21 205 6.4 9.7 0.00 0.00 0.00 51 1006.3
20260504231100 21 116 1.6 9.7 0.00 0.00 0.00 51 1006.2
20260504231000 21 58 3.2 9.7 0.00 0.00 0.00 51 1006.3
20260504230758 21 232 3.2 9.7 0.00 0.00 0.00 51 1006.3
20260504230659 21 238 4.8 11.3 0.00 0.00 0.00 51 1006.3
20260504230600 21 254 0.0 11.3 0.00 0.00 0.00 52 1006.2
20260504230501 21 254 4.8 11.3 0.00 0.00 0.00 50 1006.2
20260504230159 22 252 4.8 27.4 0.00 0.00 0.00 51 1006.2
20260504230058 22 237 3.2 27.4 0.00 0.00 0.00 51 1006.2
20260504230000 22 230 1.6 27.4 0.00 0.00 0.00 50 1006.2
20260504225857 22 229 4.8 27.4 0.00 0.00 0.00 51 1006.5
20260504225558 22 113 3.2 27.4 0.00 0.00 0.00 51 1006.3
20260504225459 22 137 8.0 27.4 0.00 0.00 0.00 51 1006.1
20260504225358 22 156 25.7 27.4 0.00 0.00 0.00 50 1006.2
20260504225158 22 253 4.8 12.9 0.00 0.00 0.00 52 1006.3
20260504225058 22 253 3.2 12.9 0.00 0.00 0.00 51 1006.3
20260504225001 22 78 3.2 12.9 0.00 0.00 0.00 50 1006.3
20260504224858 22 173 4.8 12.9 0.00 0.00 0.00 50 1006.3
20260504224757 22 169 6.4 11.3 0.00 0.00 0.00 51 1006.2
20260504224658 22 229 3.2 11.3 0.00 0.00 0.00 51 1006.2
20260504224558 22 199 11.3 11.3 0.00 0.00 0.00 52 1006.3
20260504224502 22 333 6.4 11.3 0.00 0.00 0.00 51 1006.3
20260504224400 22 34 6.4 11.3 0.00 0.00 0.00 51 1006.3
20260504224258 22 265 3.2 11.3 0.00 0.00 0.00 52 1006.2
20260504224058 22 342 3.2 14.5 0.00 0.00 0.00 51 1006.2
20260504224001 22 344 3.2 14.5 0.00 0.00 0.00 51 1006.3
20260504223857 22 342 4.8 14.5 0.00 0.00 0.00 51 1006.2
20260504223759 22 75 4.8 14.5 0.00 0.00 0.00 50 1006.2
20260504223558 22 221 4.8 14.5 0.00 0.00 0.00 50 1006.3
20260504223459 22 123 1.6 14.5 0.00 0.00 0.00 51 1006.3
20260504223258 22 137 1.6 14.5 0.00 0.00 0.00 50 1006.3
20260504223059 22 65 3.2 8.0 0.00 0.00 0.00 52 1006.3
20260504223001 22 66 4.8 11.3 0.00 0.00 0.00 51 1006.4
20260504222759 22 66 1.6 11.3 0.00 0.00 0.00 51 1006.4
20260504222658 22 66 1.6 11.3 0.00 0.00 0.00 51 1006.5
20260504222500 22 66 4.8 17.7 0.00 0.00 0.00 51 1006.4
20260504222258 22 105 1.6 17.7 0.00 0.00 0.00 51 1006.4
20260504222158 22 152 3.2 17.7 0.00 0.00 0.00 50 1006.4
20260504222058 22 198 4.8 17.7 0.00 0.00 0.00 50 1006.3
20260504221959 22 281 4.8 17.7 0.00 0.00 0.00 51 1006.4
20260504221858 22 213 1.6 17.7 0.00 0.00 0.00 52 1006.4
20260504221758 22 213 0.0 17.7 0.00 0.00 0.00 51 1006.3
20260504221658 22 144 3.2 17.7 0.00 0.00 0.00 50 1006.3
20260504221558 22 86 8.0 17.7 0.00 0.00 0.00 51 1006.3
20260504221459 22 190 3.2 17.7 0.00 0.00 0.00 51 1006.3
20260504221358 22 262 6.4 17.7 0.00 0.00 0.00 50 1006.4
20260504221258 22 165 1.6 17.7 0.00 0.00 0.00 49 1006.4
20260504221158 22 165 6.4 17.7 0.00 0.00 0.00 49 1006.4
20260504221058 22 134 4.8 17.7 0.00 0.00 0.00 49 1006.4
20260504220959 22 268 1.6 17.7 0.00 0.00 0.00 50 1006.4
20260504220857 22 217 11.3 19.3 0.00 0.00 0.00 49 1006.5
20260504220758 22 226 4.8 17.7 0.00 0.00 0.00 50 1006.4
20260504220659 22 148 3.2 17.7 0.00 0.00 0.00 50 1006.4
20260504220558 22 273 9.7 17.7 0.00 0.00 0.00 50 1006.5
20260504220500 22 143 3.2 17.7 0.00 0.00 0.00 50 1006.4
20260504220358 22 223 3.2 17.7 0.00 0.00 0.00 50 1006.6
20260504220300 22 198 1.6 16.1 0.00 0.00 0.00 51 1006.4
20260504220058 22 248 16.1 17.7 0.00 0.00 0.00 50 1006.4
20260504220000 22 217 0.0 16.1 0.00 0.00 0.00 50 1006.4
20260504215857 22 217 1.6 16.1 0.00 0.00 0.00 50 1006.4
20260504215759 22 209 1.6 16.1 0.00 0.00 0.00 50 1006.3
20260504215658 22 103 9.7 16.1 0.00 0.00 0.00 49 1006.4
20260504215559 22 161 11.3 16.1 0.00 0.00 0.00 49 1006.5
20260504215500 22 247 3.2 16.1 0.00 0.00 0.00 52 1006.4
20260504215358 22 144 14.5 14.5 0.00 0.00 0.00 51 1006.4
20260504215158 22 223 4.8 14.5 0.00 0.00 0.00 51 1006.5
20260504215057 22 148 3.2 14.5 0.00 0.00 0.00 49 1006.4
20260504215001 22 183 9.7 14.5 0.00 0.00 0.00 49 1006.4
20260504214758 22 238 0.0 14.5 0.00 0.00 0.00 50 1006.4
20260504214659 22 238 1.6 14.5 0.00 0.00 0.00 51 1006.4
20260504214558 22 238 6.4 14.5 0.00 0.00 0.00 49 1006.3
20260504214458 22 307 4.8 14.5 0.00 0.00 0.00 51 1006.4
20260504214158 22 237 1.6 17.7 0.00 0.00 0.00 50 1006.4
20260504214058 22 236 6.4 17.7 0.00 0.00 0.00 49 1006.4
20260504213959 22 263 3.2 17.7 0.00 0.00 0.00 51 1006.4
20260504213857 22 197 1.6 17.7 0.00 0.00 0.00 51 1006.4
20260504213758 22 196 1.6 17.7 0.00 0.00 0.00 49 1006.4
20260504213658 22 208 3.2 17.7 0.00 0.00 0.00 49 1006.3
20260504213458 22 210 3.2 17.7 0.00 0.00 0.00 49 1006.4
20260504213358 22 239 9.7 17.7 0.00 0.00 0.00 49 1006.5
20260504213258 22 137 14.5 17.7 0.00 0.00 0.00 50 1006.4
20260504213058 22 255 4.8 17.7 0.00 0.00 0.00 49 1006.4
20260504212857 22 195 3.2 17.7 0.00 0.00 0.00 49 1006.4
20260504212758 22 259 11.3 17.7 0.00 0.00 0.00 50 1006.4
20260504212558 22 202 3.2 17.7 0.00 0.00 0.00 50 1006.4
20260504212459 22 202 1.6 17.7 0.00 0.00 0.00 49 1006.4
20260504212258 22 244 4.8 17.7 0.00 0.00 0.00 50 1006.4
20260504212158 22 146 6.4 16.1 0.00 0.00 0.00 50 1006.4
20260504212057 22 169 11.3 12.9 0.00 0.00 0.00 50 1006.3
20260504212000 22 279 6.4 12.9 0.00 0.00 0.00 49 1006.4
20260504211857 22 128 8.0 12.9 0.00 0.00 0.00 51 1006.4
20260504211758 22 157 4.8 12.9 0.00 0.00 0.00 49 1006.3
20260504211657 22 173 8.0 12.9 0.00 0.00 0.00 51 1006.3
20260504211557 22 180 3.2 12.9 0.00 0.00 0.00 51 1006.3
20260504211458 22 159 1.6 8.0 0.00 0.00 0.00 49 1006.3
20260504211357 22 142 6.4 8.0 0.00 0.00 0.00 49 1006.3
20260504211258 22 189 6.4 9.7 0.00 0.00 0.00 51 1006.3
20260504211158 22 355 6.4 6.4 0.00 0.00 0.00 52 1006.3
20260504211058 22 232 4.8 8.0 0.00 0.00 0.00 51 1006.3
20260504210959 22 229 1.6 8.0 0.00 0.00 0.00 49 1006.3
20260504210859 22 229 3.2 8.0 0.00 0.00 0.00 48 1006.3
20260504210758 22 138 1.6 8.0 0.00 0.00 0.00 51 1006.3
20260504210700 22 138 3.2 8.0 0.00 0.00 0.00 49 1006.3
20260504210557 22 142 1.6 8.0 0.00 0.00 0.00 49 1006.3
20260504210500 22 22 3.2 8.0 0.00 0.00 0.00 50 1006.3
20260504210257 22 55 1.6 17.7 0.00 0.00 0.00 49 1006.3
20260504210157 22 55 3.2 17.7 0.00 0.00 0.00 49 1006.4
20260504210058 22 347 4.8 17.7 0.00 0.00 0.00 50 1006.4
20260504210004 22 5 0.0 17.7 0.00 0.00 0.00 49 1006.3
20260504205759 22 332 3.2 17.7 0.00 0.00 0.00 49 1006.3
20260504205700 22 185 4.8 17.7 0.00 0.00 0.00 47 1006.3
20260504205600 22 151 4.8 17.7 0.00 0.00 0.00 48 1006.2
20260504205504 22 200 4.8 17.7 0.00 0.00 0.00 49 1006.2
20260504205359 22 140 12.9 17.7 0.00 0.00 0.00 49 1006.4
20260504205259 22 293 3.2 11.3 0.00 0.00 0.00 49 1006.4
20260504205159 22 265 3.2 11.3 0.00 0.00 0.00 48 1006.4
20260504205059 22 219 1.6 11.3 0.00 0.00 0.00 49 1006.3
20260504205000 22 203 3.2 11.3 0.00 0.00 0.00 50 1006.3
20260504204900 22 142 1.6 11.3 0.00 0.00 0.00 50 1006.3
20260504204759 22 259 3.2 11.3 0.00 0.00 0.00 51 1006.3
20260504204700 22 257 1.6 16.1 0.00 0.00 0.00 50 1006.4
20260504204559 22 273 6.4 19.3 0.00 0.00 0.00 48 1006.4
20260504204501 22 252 6.4 19.3 0.00 0.00 0.00 48 1006.4
20260504204300 22 296 3.2 19.3 0.00 0.00 0.00 49 1006.5
20260504204058 22 235 6.4 19.3 0.00 0.00 0.00 49 1006.5
20260504204005 22 205 6.4 19.3 0.00 0.00 0.00 47 1006.5
20260504203859 22 221 0.0 19.3 0.00 0.00 0.00 48 1006.5
20260504203758 22 193 4.8 19.3 0.00 0.00 0.00 50 1006.4
20260504203559 22 223 8.0 14.5 0.00 0.00 0.00 51 1006.4
20260504203504 22 331 3.2 14.5 0.00 0.00 0.00 49 1006.4
20260504203401 22 190 3.2 14.5 0.00 0.00 0.00 48 1006.5
20260504203300 22 211 3.2 14.5 0.00 0.00 0.00 48 1006.4
20260504203200 22 211 0.0 14.5 0.00 0.00 0.00 49 1006.4
20260504203004 22 186 4.8 14.5 0.00 0.00 0.00 49 1006.7
20260504202859 22 239 8.0 19.3 0.00 0.00 0.00 49 1006.6
20260504202759 22 199 8.0 19.3 0.00 0.00 0.00 49 1006.6
20260504202700 22 198 3.2 19.3 0.00 0.00 0.00 51 1006.6
20260504202502 22 201 1.6 19.3 0.00 0.00 0.00 50 1006.7
20260504202400 22 213 4.8 19.3 0.00 0.00 0.00 48 1006.7
20260504202300 22 173 4.8 19.3 0.00 0.00 0.00 48 1006.7
20260504202159 22 190 4.8 19.3 0.00 0.00 0.00 48 1006.7
20260504202059 22 148 12.9 19.3 0.00 0.00 0.00 49 1006.7
20260504202005 22 200 3.2 19.3 0.00 0.00 0.00 49 1006.7
20260504201859 22 105 6.4 14.5 0.00 0.00 0.00 49 1006.7
20260504201759 22 145 3.2 14.5 0.00 0.00 0.00 48 1006.7
20260504201659 22 146 4.8 14.5 0.00 0.00 0.00 48 1006.7
20260504201600 22 105 14.5 14.5 0.00 0.00 0.00 48 1006.9
20260504201503 22 278 4.8 14.5 0.00 0.00 0.00 47 1006.8
20260504201259 22 149 12.9 16.1 0.00 0.00 0.00 49 1006.8
20260504201159 22 243 6.4 16.1 0.00 0.00 0.00 48 1006.9
20260504201059 22 157 3.2 16.1 0.00 0.00 0.00 50 1006.9
20260504201005 22 157 1.6 16.1 0.00 0.00 0.00 49 1006.9
20260504200859 22 142 6.4 16.1 0.00 0.00 0.00 48 1006.9
20260504200800 22 184 6.4 16.1 0.00 0.00 0.00 49 1006.8
20260504200701 22 142 8.0 16.1 0.00 0.00 0.00 48 1006.8
20260504200559 22 144 9.7 16.1 0.00 0.00 0.00 48 1006.8
20260504200504 22 151 1.6 16.1 0.00 0.00 0.00 49 1006.9
20260504200401 22 153 4.8 14.5 0.00 0.00 0.00 50 1006.9
20260504200300 22 98 0.0 17.7 0.00 0.00 0.00 50 1006.9
20260504200159 22 98 1.6 17.7 0.00 0.00 0.00 50 1006.9
20260504200059 22 98 1.6 17.7 0.00 0.00 0.00 48 1006.9
20260504200000 22 203 6.4 17.7 0.00 0.00 0.00 49 1007.0
20260504195858 22 200 4.8 17.7 0.00 0.00 0.00 50 1007.0
20260504195758 22 199 1.6 17.7 0.00 0.00 0.00 53 1007.0
20260504195659 22 200 1.6 17.7 0.00 0.00 0.00 48 1007.0
20260504195558 22 155 6.4 17.7 0.00 0.00 0.00 49 1007.0
20260504195501 22 288 11.3 17.7 0.00 0.00 0.00 49 1007.0
20260504195359 22 264 4.8 17.7 0.00 0.00 0.00 51 1007.0
20260504195300 22 183 11.3 17.7 0.00 0.00 0.00 48 1007.1
20260504195159 22 187 12.9 14.5 0.00 0.00 0.00 48 1007.2
20260504195100 22 195 8.0 14.5 0.00 0.00 0.00 48 1007.2
20260504194959 22 257 8.0 14.5 0.00 0.00 0.00 49 1007.2
20260504194858 22 144 14.5 14.5 0.00 0.00 0.00 49 1007.3
20260504194759 22 202 4.8 11.3 0.00 0.00 0.00 49 1007.2
20260504194659 22 298 6.4 14.5 0.00 0.00 0.00 49 1007.2
20260504194559 22 296 8.0 14.5 0.00 0.00 0.00 52 1007.3
20260504194500 22 281 4.8 14.5 0.00 0.00 0.00 49 1007.2
20260504194400 22 133 6.4 14.5 0.00 0.00 0.00 49 1007.3
20260504194259 22 176 6.4 14.5 0.00 0.00 0.00 49 1007.3
20260504194158 21 113 3.2 14.5 0.00 0.00 0.00 49 1007.3
20260504194059 21 201 3.2 14.5 0.00 0.00 0.00 50 1007.3
20260504193859 21 159 8.0 14.5 0.00 0.00 0.00 51 1007.3
20260504193658 21 170 9.7 16.1 0.00 0.00 0.00 50 1007.4
20260504193559 21 261 3.2 16.1 0.00 0.00 0.00 51 1007.5
20260504193500 21 267 3.2 16.1 0.00 0.00 0.00 52 1007.5
20260504193358 21 262 3.2 16.1 0.00 0.00 0.00 50 1007.5
20260504193257 21 195 4.8 16.1 0.00 0.00 0.00 51 1007.5
20260504193159 21 195 3.2 16.1 0.00 0.00 0.00 49 1007.5
20260504193058 21 309 1.6 16.1 0.00 0.00 0.00 50 1007.5
20260504192959 21 139 1.6 16.1 0.00 0.00 0.00 51 1007.5
20260504192857 21 296 6.4 16.1 0.00 0.00 0.00 49 1007.5
20260504192758 21 183 12.9 16.1 0.00 0.00 0.00 50 1007.5
20260504192658 21 183 3.2 12.9 0.00 0.00 0.00 51 1007.4
20260504192502 21 183 3.2 12.9 0.00 0.00 0.00 49 1007.5
20260504192300 21 187 4.8 12.9 0.00 0.00 0.00 50 1007.6
20260504192158 21 228 1.6 12.9 0.00 0.00 0.00 51 1007.6
20260504192058 21 113 3.2 12.9 0.00 0.00 0.00 50 1007.6
20260504191859 21 301 4.8 12.9 0.00 0.00 0.00 49 1007.6
20260504191759 21 182 8.0 12.9 0.00 0.00 0.00 49 1007.6
20260504191700 21 175 4.8 12.9 0.00 0.00 0.00 51 1007.7
20260504191558 21 234 1.6 11.3 0.00 0.00 0.00 50 1007.8
20260504191459 21 227 3.2 11.3 0.00 0.00 0.00 53 1007.8
20260504191357 21 265 1.6 11.3 0.00 0.00 0.00 49 1007.8
20260504191259 21 265 3.2 11.3 0.00 0.00 0.00 51 1007.8
20260504191158 21 265 1.6 11.3 0.00 0.00 0.00 50 1007.8
20260504190858 21 234 3.2 11.3 0.00 0.00 0.00 50 1007.8
20260504190758 21 150 4.8 11.3 0.00 0.00 0.00 52 1007.8
20260504190558 21 226 3.2 11.3 0.00 0.00 0.00 51 1007.8
20260504190459 21 145 0.0 11.3 0.00 0.00 0.00 51 1007.8
20260504190258 21 207 4.8 12.9 0.00 0.00 0.00 50 1007.8
20260504190159 21 141 4.8 12.9 0.00 0.00 0.00 50 1007.8
20260504190058 21 155 4.8 14.5 0.00 0.00 0.00 54 1007.9
20260504185959 21 221 4.8 14.5 0.00 0.00 0.00 52 1007.9
20260504185759 21 202 1.6 14.5 0.00 0.00 0.00 54 1007.9
20260504185700 21 202 0.0 14.5 0.00 0.00 0.00 50 1008.0
20260504185600 21 202 4.8 14.5 0.00 0.00 0.00 49 1008.1
20260504185458 21 194 4.8 14.5 0.00 0.00 0.00 49 1008.1
20260504185358 21 229 3.2 14.5 0.00 0.00 0.00 49 1008.1
20260504185258 21 267 6.4 14.5 0.00 0.00 0.00 50 1008.2
20260504185158 21 262 11.3 14.5 0.00 0.00 0.00 51 1008.1
20260504185057 21 172 3.2 12.9 0.00 0.00 0.00 50 1008.1
20260504185000 21 175 3.2 12.9 0.00 0.00 0.00 50 1008.1
20260504184900 21 193 3.2 12.9 0.00 0.00 0.00 50 1008.1
20260504184757 22 192 3.2 12.9 0.00 0.00 0.00 49 1008.2
20260504184658 22 173 4.8 12.9 0.00 0.00 0.00 48 1008.2
20260504184357 22 213 3.2 12.9 0.00 0.00 0.00 48 1008.3
20260504184258 22 211 4.8 12.9 0.00 0.00 0.00 48 1008.3
20260504184159 22 126 8.0 12.9 0.00 0.00 0.00 51 1008.2
20260504184058 22 123 1.6 12.9 0.00 0.00 0.00 49 1008.2
20260504183859 22 198 11.3 12.9 0.00 0.00 0.00 49 1008.3
20260504183759 22 223 3.2 9.7 0.00 0.00 0.00 53 1008.3
20260504183559 21 205 3.2 9.7 0.00 0.00 0.00 51 1008.3
20260504183459 21 192 4.8 9.7 0.00 0.00 0.00 50 1008.3
20260504183359 21 212 3.2 11.3 0.00 0.00 0.00 51 1008.3
20260504183259 21 239 3.2 11.3 0.00 0.00 0.00 51 1008.4
20260504183158 21 200 6.4 11.3 0.00 0.00 0.00 48 1008.4
20260504183057 21 189 3.2 11.3 0.00 0.00 0.00 49 1008.4
20260504183000 21 188 6.4 11.3 0.00 0.00 0.00 49 1008.4
20260504182758 21 57 3.2 14.5 0.00 0.00 0.00 48 1008.4
20260504182658 21 232 3.2 14.5 0.00 0.00 0.00 49 1008.4
20260504182558 21 232 6.4 14.5 0.00 0.00 0.00 50 1008.4
20260504182505 21 181 6.4 14.5 0.00 0.00 0.00 50 1008.5
20260504182258 21 150 8.0 14.5 0.00 0.00 0.00 51 1008.6
20260504182158 21 259 1.6 14.5 0.00 0.00 0.00 52 1008.6
20260504181759 21 302 3.2 9.7 0.00 0.00 0.00 50 1008.6
20260504181659 21 161 3.2 9.7 0.00 0.00 0.00 50 1008.7
20260504181559 21 137 8.0 9.7 0.00 0.00 0.00 51 1008.7
20260504181358 21 58 1.6 9.7 0.00 0.00 0.00 52 1008.7
20260504181258 21 58 1.6 8.0 0.00 0.00 0.00 51 1008.7
20260504181159 21 300 3.2 8.0 0.00 0.00 0.00 51 1008.8
20260504181058 21 312 3.2 8.0 0.00 0.00 0.00 50 1008.8
20260504181000 21 312 1.6 11.3 0.00 0.00 0.00 50 1008.7
20260504180858 21 312 1.6 11.3 0.00 0.00 0.00 48 1008.6
20260504180759 21 315 4.8 11.3 0.00 0.00 0.00 49 1008.8
20260504180658 21 265 3.2 11.3 0.00 0.00 0.00 49 1008.9
20260504180558 21 300 6.4 11.3 0.00 0.00 0.00 50 1008.8
20260504180500 21 242 1.6 11.3 0.00 0.00 0.00 51 1008.8
20260504180358 21 178 3.2 11.3 0.00 0.00 0.00 51 1008.8
20260504180259 21 178 1.6 12.9 0.00 0.00 0.00 51 1008.9
20260504180005 21 132 8.0 12.9 0.00 0.00 0.00 49 1009.0
20260504175859 21 172 1.6 12.9 0.00 0.00 0.00 51 1009.0
20260504175759 21 161 6.4 12.9 0.00 0.00 0.00 55 1008.9
20260504175658 21 136 1.6 12.9 0.00 0.00 0.00 52 1009.0
20260504175459 21 150 4.8 17.7 0.00 0.00 0.00 48 1009.0
20260504175359 21 182 12.9 17.7 0.00 0.00 0.00 50 1009.1
20260504175159 21 190 0.0 17.7 0.00 0.00 0.00 52 1009.1
20260504175058 21 143 3.2 17.7 0.00 0.00 0.00 48 1009.2
20260504174858 21 188 6.4 17.7 0.00 0.00 0.00 51 1009.2
20260504174759 21 341 6.4 17.7 0.00 0.00 0.00 49 1009.1
20260504174658 21 164 6.4 17.7 0.00 0.00 0.00 48 1009.2
20260504174558 21 149 14.5 17.7 0.00 0.00 0.00 50 1009.2
20260504174500 21 155 3.2 17.7 0.00 0.00 0.00 49 1009.2
20260504174359 21 178 1.6 17.7 0.00 0.00 0.00 50 1009.2
20260504174257 21 195 3.2 17.7 0.00 0.00 0.00 48 1009.3
20260504174058 21 220 6.4 17.7 0.00 0.00 0.00 49 1009.3
20260504174000 21 115 14.5 14.5 0.00 0.00 0.00 51 1009.3
20260504173858 21 285 0.0 11.3 0.00 0.00 0.00 50 1009.3
20260504173758 21 298 4.8 11.3 0.00 0.00 0.00 49 1009.4
20260504173657 21 155 4.8 9.7 0.00 0.00 0.00 49 1009.3
20260504173600 21 256 3.2 9.7 0.00 0.00 0.00 51 1009.4
20260504173500 21 289 4.8 11.3 0.00 0.00 0.00 51 1009.4
20260504173258 21 193 4.8 16.1 0.00 0.00 0.00 54 1009.3
20260504173157 21 168 1.6 16.1 0.00 0.00 0.00 51 1009.3
20260504173059 21 168 3.2 16.1 0.00 0.00 0.00 50 1009.3
20260504172959 20 167 1.6 16.1 0.00 0.00 0.00 48 1009.3
20260504172858 21 172 9.7 16.1 0.00 0.00 0.00 48 1009.4
20260504172757 21 147 6.4 16.1 0.00 0.00 0.00 52 1009.4
20260504172657 21 214 1.6 16.1 0.00 0.00 0.00 48 1009.4
20260504172558 21 165 9.7 16.1 0.00 0.00 0.00 49 1009.4
20260504172358 21 178 3.2 12.9 0.00 0.00 0.00 50 1009.3
20260504172258 21 176 3.2 12.9 0.00 0.00 0.00 49 1009.4
20260504172159 21 169 6.4 12.9 0.00 0.00 0.00 49 1009.4
20260504172100 21 162 1.6 12.9 0.00 0.00 0.00 49 1009.3
20260504172000 21 235 1.6 12.9 0.00 0.00 0.00 52 1009.4
20260504171900 21 238 3.2 12.9 0.00 0.00 0.00 52 1009.5
20260504171758 21 238 4.8 14.5 0.00 0.00 0.00 51 1009.5
20260504171659 21 198 3.2 14.5 0.00 0.00 0.00 51 1009.5
20260504171559 21 222 3.2 14.5 0.00 0.00 0.00 53 1009.5
20260504171501 21 233 1.6 14.5 0.00 0.00 0.00 53 1009.4
20260504171359 20 187 3.2 14.5 0.00 0.00 0.00 50 1009.4
20260504171257 20 207 4.8 20.9 0.00 0.00 0.00 52 1009.4
20260504171201 20 262 1.6 20.9 0.00 0.00 0.00 50 1009.4
20260504170858 20 157 9.7 20.9 0.00 0.00 0.00 49 1009.6
20260504170657 20 268 1.6 20.9 0.00 0.00 0.00 49 1009.6
20260504170558 20 252 11.3 20.9 0.00 0.00 0.00 49 1009.6
20260504170500 20 144 6.4 20.9 0.00 0.00 0.00 49 1009.6
20260504170359 20 157 11.3 20.9 0.00 0.00 0.00 50 1009.7
20260504170258 20 154 6.4 11.3 0.00 0.00 0.00 48 1009.7
20260504160359 19 185 4.8 17.7 0.00 0.00 0.00 52 1010.7
20260504160258 19 249 4.8 17.7 0.00 0.00 0.00 51 1010.7
20260504160159 19 194 4.8 17.7 0.00 0.00 0.00 49 1010.7